Regional Weather Roundup
Issued by NWS

Home | Current Version | Previous Version | Graphics & Text | Print | Product List | Glossary On
Versions: 1 2 3 4 5 6 7 8 9 10 11 12 13 14 15 16 17 18 19 20 21 22 23 24 25 26 27 28 29 30 31 32 33 34 35 36 37 38 39 40 41 42 43 44 45 46 47 48 49 50
000
ASUS45 KCYS 231610
RWRWY

WYOMING REGIONAL WEATHER ROUNDUP
NATIONAL WEATHER SERVICE CHEYENNE WY
900 AM MST MON JAN 23 2017

NOTE:  "FAIR" INDICATES FEW OR NO CLOUDS BELOW 12,000 FEET
WITH NO SIGNIFICANT WEATHER AND/OR OBSTRUCTIONS TO VISIBILITY.

WYZ001-231700-
YELLOWSTONE NATIONAL PARK

CITY           SKY/WX    TMP DP  RH WIND       PRES   REMARKS
LK YELLOWSTONE   N/A      7   5  91 CALM      29.56F
W YELLOWSTONE  NOT AVBL

$$
WYZ002>013-054>058-071-098>099-231700-
NORTHERN WYOMING

CITY           SKY/WX    TMP DP  RH WIND       PRES   REMARKS
JACKSON        CLOUDY    18  18 100 CALM      29.57S
CODY           FAIR      13   9  84 CALM      29.60R
GREYBULL       FAIR      15  11  83 CALM      29.61S
WORLAND        FAIR      15  13  91 CALM      29.59F
SHERIDAN       FAIR      18  14  84 S7        29.63R WCI   9
BUFFALO        FAIR      30  14  51 CALM      29.58R
GILLETTE       FAIR      29  22  75 CALM      29.58S
HULETT         FAIR      25  19  80 MISG      29.58F
NEWCASTLE      CLOUDY    32  28  86 E8        29.61S WCI  25

$$
WYZ014>020-022>026-101>103-231700-
CENTRAL WYOMING

CITY           SKY/WX    TMP DP  RH WIND       PRES   REMARKS
BIG PINEY      LGT SNOW  19  16  88 N7        29.56F FOG     WCI  10
PINEDALE       CLOUDY    12  10  92 W5        29.57F WCI   4
DUBOIS         NOT AVBL
LANDER         FAIR      18  12  77 N7        29.57R WCI   9
RIVERTON       FOG      N/A N/A N/A NE5       29.58S VSB 1/4
CASPER         FAIR      26  20  77 NW3       29.59S
DOUGLAS        FAIR      33  24  69 NW10      29.60F WCI  25

$$
WYZ021-027>030-104>119-231700-
SOUTHERN WYOMING

CITY           SKY/WX    TMP DP  RH WIND       PRES   REMARKS
EVANSTON       LGT SNOW  24  22  91 SE8       29.50S VSB 1   WCI  15
ROCK SPRINGS   CLOUDY    27  20  75 S10       29.56F WCI  17
RAWLINS        CLOUDY    30  23  75 SW17G26   29.59S WCI  18
LARAMIE        FAIR      22  18  85 SE6       29.61R WCI  14
CHEYENNE       FAIR      37  21  52 SW15      29.60S WCI  28
TORRINGTON     FAIR      28  21  75 CALM      29.63S

$$



USA.gov is the U.S. government's official web portal to all federal, state and local government web resources and services.